GEFSNE_prec_meanprecacc_018.txt.gz
Total_Precipitation_Accumulation
0.08 0.10 0.12 0.12 0.13 0.13 0.16 0.23 0.26 0.17 0.06 0.03 0.02 0.01 0.02 0.02 0.02 0.04 0.03 0.03 0.03 0.04 0.06 0.07 0.08 0.11 0.14 0.17 0.22 0.28 0.33 0.37 0.42 0.47 0.53 0.56 0.54 0.49
0.04 0.07 0.09 0.10 0.11 0.13 0.13 0.15 0.22 0.26 0.15 0.04 0.04 0.03 0.05 0.04 0.04 0.07 0.07 0.07 0.08 0.09 0.09 0.09 0.09 0.10 0.12 0.15 0.18 0.21 0.24 0.27 0.31 0.35 0.39 0.43 0.45 0.46
0.03 0.05 0.07 0.09 0.11 0.11 0.12 0.13 0.15 0.21 0.20 0.07 0.05 0.06 0.07 0.05 0.04 0.09 0.09 0.09 0.09 0.11 0.13 0.15 0.18 0.18 0.17 0.17 0.17 0.18 0.19 0.21 0.25 0.30 0.35 0.39 0.41 0.41
0.01 0.02 0.04 0.06 0.08 0.11 0.13 0.13 0.13 0.15 0.21 0.14 0.05 0.05 0.06 0.07 0.08 0.10 0.11 0.13 0.12 0.13 0.17 0.21 0.26 0.27 0.25 0.23 0.21 0.20 0.19 0.20 0.22 0.24 0.28 0.33 0.37 0.40
0.01 0.01 0.01 0.02 0.02 0.05 0.08 0.11 0.13 0.16 0.22 0.24 0.14 0.11 0.11 0.10 0.12 0.11 0.13 0.15 0.15 0.16 0.19 0.22 0.25 0.26 0.26 0.25 0.23 0.22 0.22 0.22 0.24 0.26 0.27 0.30 0.34 0.39
0.00 0.01 0.01 0.01 0.02 0.03 0.06 0.09 0.14 0.17 0.21 0.24 0.20 0.15 0.14 0.13 0.14 0.13 0.14 0.15 0.17 0.19 0.22 0.23 0.24 0.24 0.24 0.24 0.24 0.24 0.24 0.26 0.32 0.37 0.41 0.43 0.43 0.43
0.00 0.00 0.00 0.00 0.01 0.03 0.06 0.08 0.12 0.16 0.19 0.23 0.23 0.19 0.17 0.17 0.15 0.17 0.22 0.23 0.22 0.21 0.22 0.22 0.25 0.30 0.33 0.36 0.38 0.37 0.36 0.38 0.43 0.48 0.52 0.53 0.53 0.53
0.00 0.00 0.00 0.00 0.01 0.03 0.05 0.07 0.11 0.15 0.18 0.21 0.23 0.24 0.21 0.24 0.28 0.34 0.39 0.41 0.37 0.26 0.30 0.37 0.43 0.50 0.51 0.53 0.57 0.56 0.53 0.52 0.52 0.54 0.55 0.55 0.56 0.59
0.00 0.00 0.00 0.01 0.03 0.03 0.04 0.05 0.05 0.08 0.13 0.17 0.18 0.17 0.18 0.20 0.28 0.33 0.37 0.41 0.40 0.36 0.42 0.49 0.48 0.50 0.49 0.52 0.59 0.57 0.52 0.49 0.49 0.50 0.52 0.52 0.51 0.53
0.00 0.00 0.01 0.01 0.02 0.04 0.07 0.07 0.04 0.02 0.04 0.07 0.09 0.10 0.14 0.19 0.26 0.34 0.43 0.52 0.48 0.41 0.39 0.42 0.38 0.37 0.37 0.39 0.46 0.47 0.43 0.40 0.40 0.41 0.42 0.42 0.41 0.41
0.00 0.01 0.02 0.01 0.02 0.06 0.09 0.07 0.04 0.01 0.02 0.04 0.07 0.09 0.11 0.15 0.22 0.35 0.49 0.57 0.51 0.35 0.29 0.33 0.34 0.36 0.35 0.33 0.36 0.40 0.36 0.33 0.32 0.33 0.33 0.33 0.34 0.36
0.01 0.01 0.01 0.02 0.04 0.07 0.08 0.07 0.05 0.03 0.03 0.04 0.04 0.04 0.04 0.06 0.15 0.27 0.47 0.63 0.55 0.42 0.31 0.33 0.35 0.39 0.41 0.33 0.31 0.33 0.31 0.29 0.27 0.26 0.26 0.26 0.27 0.25
0.04 0.02 0.01 0.03 0.06 0.06 0.05 0.04 0.06 0.09 0.07 0.04 0.04 0.04 0.04 0.04 0.07 0.14 0.28 0.53 0.65 0.56 0.42 0.41 0.41 0.39 0.38 0.33 0.31 0.31 0.30 0.30 0.29 0.28 0.27 0.26 0.22 0.18
0.05 0.03 0.03 0.05 0.05 0.03 0.03 0.04 0.06 0.07 0.04 0.04 0.05 0.05 0.07 0.10 0.14 0.19 0.24 0.34 0.49 0.58 0.51 0.45 0.43 0.38 0.36 0.33 0.31 0.32 0.33 0.35 0.35 0.32 0.29 0.29 0.26 0.24
0.05 0.06 0.05 0.04 0.02 0.01 0.02 0.04 0.04 0.04 0.07 0.11 0.10 0.10 0.13 0.20 0.25 0.28 0.29 0.32 0.38 0.44 0.45 0.42 0.41 0.39 0.37 0.34 0.30 0.33 0.38 0.40 0.39 0.36 0.29 0.23 0.21 0.21
0.07 0.06 0.03 0.02 0.02 0.02 0.02 0.02 0.02 0.06 0.13 0.16 0.14 0.13 0.15 0.22 0.26 0.33 0.40 0.43 0.48 0.50 0.48 0.41 0.39 0.36 0.32 0.29 0.28 0.31 0.36 0.41 0.40 0.36 0.29 0.22 0.18 0.15
0.07 0.03 0.01 0.01 0.01 0.02 0.01 0.01 0.02 0.05 0.09 0.11 0.14 0.16 0.18 0.28 0.38 0.47 0.55 0.57 0.57 0.55 0.49 0.39 0.31 0.26 0.24 0.22 0.22 0.25 0.30 0.35 0.35 0.30 0.24 0.21 0.18 0.13
0.04 0.02 0.02 0.02 0.03 0.03 0.03 0.03 0.03 0.05 0.10 0.16 0.18 0.20 0.26 0.35 0.47 0.57 0.65 0.65 0.57 0.48 0.40 0.32 0.24 0.19 0.17 0.16 0.19 0.21 0.24 0.29 0.32 0.26 0.17 0.13 0.15 0.11
0.02 0.03 0.03 0.03 0.03 0.04 0.05 0.07 0.08 0.09 0.17 0.26 0.31 0.34 0.37 0.44 0.54 0.61 0.64 0.58 0.47 0.37 0.28 0.21 0.15 0.14 0.13 0.12 0.13 0.15 0.17 0.21 0.21 0.18 0.14 0.08 0.08 0.07
0.03 0.04 0.03 0.03 0.04 0.05 0.07 0.11 0.15 0.18 0.25 0.34 0.40 0.43 0.45 0.51 0.59 0.60 0.54 0.44 0.33 0.24 0.15 0.09 0.06 0.05 0.06 0.06 0.07 0.09 0.11 0.12 0.10 0.08 0.07 0.05 0.05 0.04
0.03 0.03 0.03 0.03 0.04 0.05 0.08 0.14 0.22 0.31 0.38 0.46 0.50 0.52 0.53 0.57 0.60 0.54 0.40 0.27 0.16 0.08 0.04 0.02 0.02 0.01 0.02 0.02 0.02 0.03 0.05 0.05 0.03 0.03 0.03 0.03 0.02 0.02
0.03 0.03 0.03 0.03 0.04 0.06 0.10 0.18 0.27 0.35 0.42 0.48 0.53 0.53 0.53 0.52 0.45 0.32 0.16 0.07 0.03 0.02 0.01 0.01 0.00 0.00 0.00 0.00 0.00 0.01 0.01 0.01 0.01 0.01 0.01 0.02 0.02 0.02
0.03 0.04 0.04 0.03 0.04 0.08 0.14 0.21 0.32 0.40 0.44 0.49 0.51 0.48 0.42 0.31 0.17 0.07 0.02 0.01 0.01 0.01 0.00 0.00 0.00 0.00 0.00 0.00 0.00 0.00 0.00 0.01 0.01 0.01 0.02 0.02 0.02 0.02

GEFSNE_prec_meanprecacc_024.txt.gz
Total_Precipitation_Accumulation
0.08 0.10 0.12 0.12 0.13 0.13 0.16 0.23 0.26 0.17 0.06 0.03 0.02 0.01 0.02 0.02 0.02 0.04 0.03 0.03 0.03 0.04 0.06 0.07 0.08 0.11 0.14 0.17 0.22 0.28 0.34 0.38 0.44 0.50 0.58 0.68 0.78 0.89
0.04 0.07 0.09 0.10 0.11 0.13 0.13 0.15 0.22 0.26 0.15 0.04 0.04 0.03 0.05 0.04 0.04 0.07 0.07 0.07 0.08 0.09 0.09 0.09 0.10 0.10 0.12 0.15 0.19 0.22 0.25 0.28 0.32 0.37 0.43 0.48 0.55 0.66
0.03 0.05 0.07 0.09 0.11 0.11 0.12 0.13 0.15 0.21 0.20 0.07 0.05 0.06 0.07 0.05 0.04 0.09 0.09 0.09 0.09 0.11 0.14 0.15 0.18 0.18 0.18 0.18 0.18 0.18 0.20 0.22 0.27 0.32 0.38 0.43 0.48 0.51
0.01 0.02 0.04 0.06 0.08 0.11 0.13 0.13 0.13 0.16 0.22 0.16 0.06 0.05 0.06 0.07 0.08 0.10 0.11 0.13 0.12 0.13 0.17 0.22 0.26 0.28 0.26 0.24 0.22 0.21 0.20 0.21 0.23 0.26 0.30 0.35 0.42 0.47
0.01 0.01 0.01 0.02 0.02 0.05 0.08 0.11 0.13 0.17 0.24 0.27 0.15 0.11 0.11 0.10 0.12 0.11 0.13 0.15 0.15 0.16 0.19 0.22 0.25 0.27 0.27 0.27 0.26 0.25 0.24 0.25 0.26 0.28 0.29 0.32 0.36 0.42
0.00 0.01 0.01 0.01 0.02 0.03 0.06 0.09 0.15 0.19 0.23 0.27 0.23 0.17 0.15 0.13 0.15 0.14 0.14 0.15 0.17 0.19 0.22 0.23 0.25 0.26 0.26 0.27 0.27 0.27 0.26 0.29 0.34 0.40 0.44 0.45 0.45 0.45
0.00 0.00 0.00 0.00 0.01 0.03 0.07 0.10 0.15 0.19 0.23 0.27 0.27 0.23 0.20 0.19 0.17 0.18 0.23 0.23 0.23 0.21 0.23 0.23 0.27 0.31 0.34 0.37 0.39 0.38 0.38 0.41 0.46 0.51 0.54 0.55 0.55 0.54
0.00 0.00 0.00 0.00 0.01 0.04 0.07 0.10 0.14 0.19 0.23 0.28 0.30 0.29 0.25 0.26 0.30 0.35 0.40 0.43 0.38 0.27 0.32 0.38 0.44 0.51 0.52 0.53 0.58 0.58 0.56 0.55 0.55 0.56 0.57 0.57 0.57 0.60
0.00 0.00 0.00 0.01 0.03 0.04 0.05 0.07 0.08 0.12 0.19 0.24 0.24 0.21 0.20 0.21 0.29 0.35 0.40 0.44 0.42 0.37 0.44 0.51 0.49 0.51 0.51 0.54 0.62 0.60 0.55 0.51 0.51 0.52 0.54 0.54 0.52 0.54
0.00 0.00 0.01 0.02 0.02 0.06 0.09 0.09 0.06 0.05 0.07 0.09 0.11 0.11 0.15 0.20 0.29 0.37 0.47 0.55 0.50 0.42 0.41 0.47 0.41 0.39 0.38 0.40 0.47 0.48 0.45 0.43 0.43 0.44 0.44 0.44 0.42 0.42
0.00 0.01 0.02 0.02 0.03 0.09 0.13 0.11 0.07 0.03 0.03 0.05 0.09 0.11 0.13 0.17 0.23 0.37 0.53 0.63 0.55 0.37 0.31 0.37 0.38 0.38 0.36 0.33 0.36 0.42 0.41 0.40 0.39 0.37 0.37 0.36 0.36 0.37
0.02 0.01 0.02 0.03 0.07 0.12 0.12 0.11 0.08 0.04 0.04 0.05 0.05 0.05 0.04 0.06 0.15 0.29 0.54 0.75 0.64 0.46 0.32 0.37 0.39 0.42 0.45 0.34 0.31 0.35 0.34 0.33 0.31 0.30 0.29 0.28 0.28 0.26
0.05 0.03 0.02 0.05 0.10 0.11 0.10 0.06 0.07 0.11 0.09 0.05 0.05 0.04 0.04 0.04 0.07 0.15 0.32 0.64 0.79 0.64 0.44 0.46 0.49 0.44 0.44 0.36 0.31 0.31 0.31 0.33 0.35 0.33 0.31 0.28 0.24 0.19
0.07 0.04 0.04 0.08 0.09 0.06 0.04 0.04 0.08 0.09 0.05 0.04 0.06 0.06 0.07 0.11 0.15 0.20 0.25 0.36 0.54 0.65 0.54 0.52 0.56 0.47 0.44 0.38 0.33 0.33 0.35 0.41 0.45 0.43 0.39 0.37 0.31 0.29
0.07 0.08 0.09 0.07 0.04 0.02 0.02 0.05 0.05 0.04 0.08 0.13 0.12 0.12 0.14 0.21 0.26 0.29 0.30 0.33 0.39 0.45 0.47 0.47 0.51 0.48 0.46 0.40 0.33 0.36 0.42 0.48 0.56 0.57 0.47 0.36 0.31 0.31
0.09 0.09 0.05 0.02 0.02 0.02 0.02 0.02 0.03 0.07 0.15 0.20 0.18 0.15 0.16 0.23 0.28 0.36 0.45 0.47 0.52 0.52 0.50 0.45 0.43 0.42 0.37 0.32 0.32 0.35 0.42 0.53 0.61 0.67 0.57 0.41 0.34 0.29
0.10 0.04 0.01 0.01 0.02 0.02 0.01 0.01 0.02 0.05 0.11 0.15 0.18 0.20 0.21 0.30 0.40 0.51 0.61 0.65 0.65 0.61 0.54 0.42 0.34 0.29 0.28 0.27 0.27 0.30 0.36 0.47 0.57 0.61 0.53 0.43 0.40 0.34
0.06 0.02 0.02 0.03 0.04 0.04 0.04 0.04 0.04 0.07 0.14 0.21 0.23 0.26 0.31 0.40 0.52 0.61 0.72 0.73 0.66 0.55 0.45 0.36 0.28 0.22 0.22 0.22 0.25 0.29 0.33 0.43 0.52 0.52 0.39 0.28 0.34 0.33
0.03 0.03 0.04 0.04 0.04 0.05 0.06 0.09 0.10 0.12 0.21 0.32 0.37 0.40 0.44 0.51 0.61 0.68 0.71 0.65 0.53 0.42 0.33 0.26 0.20 0.19 0.19 0.18 0.19 0.25 0.31 0.36 0.38 0.39 0.32 0.19 0.22 0.24
0.04 0.05 0.04 0.04 0.05 0.07 0.10 0.15 0.19 0.22 0.29 0.39 0.46 0.49 0.52 0.58 0.66 0.66 0.60 0.50 0.38 0.28 0.19 0.13 0.11 0.12 0.14 0.15 0.17 0.25 0.27 0.26 0.20 0.19 0.20 0.17 0.19 0.19
0.04 0.04 0.03 0.04 0.06 0.08 0.12 0.18 0.27 0.36 0.43 0.52 0.55 0.57 0.58 0.63 0.65 0.58 0.44 0.30 0.19 0.12 0.07 0.05 0.05 0.07 0.09 0.10 0.13 0.20 0.28 0.27 0.17 0.12 0.10 0.09 0.11 0.13
0.04 0.04 0.04 0.04 0.07 0.10 0.15 0.23 0.32 0.39 0.45 0.52 0.57 0.57 0.57 0.57 0.50 0.35 0.20 0.11 0.07 0.05 0.04 0.03 0.02 0.02 0.04 0.06 0.09 0.13 0.17 0.20 0.17 0.10 0.06 0.05 0.06 0.08
0.04 0.05 0.05 0.05 0.08 0.13 0.19 0.26 0.36 0.43 0.47 0.53 0.55 0.52 0.46 0.36 0.21 0.10 0.05 0.04 0.04 0.04 0.03 0.02 0.01 0.01 0.02 0.04 0.06 0.08 0.10 0.10 0.09 0.08 0.08 0.06 0.05 0.06

GEFSNE_prec_meanprecacc_030.txt.gz
Total_Precipitation_Accumulation
0.08 0.10 0.12 0.12 0.13 0.13 0.16 0.23 0.26 0.17 0.06 0.03 0.02 0.01 0.02 0.02 0.02 0.04 0.03 0.03 0.03 0.04 0.06 0.07 0.09 0.12 0.15 0.18 0.24 0.30 0.36 0.41 0.46 0.53 0.60 0.70 0.80 0.91
0.04 0.07 0.09 0.10 0.11 0.13 0.13 0.15 0.22 0.26 0.15 0.04 0.04 0.03 0.05 0.04 0.04 0.07 0.07 0.07 0.08 0.09 0.09 0.10 0.11 0.12 0.14 0.17 0.20 0.24 0.27 0.31 0.36 0.41 0.47 0.52 0.59 0.69
0.03 0.05 0.07 0.09 0.11 0.11 0.12 0.13 0.15 0.21 0.20 0.07 0.05 0.06 0.07 0.05 0.04 0.09 0.09 0.09 0.09 0.11 0.14 0.17 0.20 0.20 0.20 0.20 0.20 0.21 0.22 0.25 0.30 0.36 0.43 0.49 0.53 0.56
0.01 0.02 0.04 0.06 0.08 0.11 0.13 0.13 0.13 0.16 0.22 0.16 0.06 0.05 0.06 0.07 0.08 0.10 0.12 0.13 0.13 0.14 0.18 0.23 0.28 0.30 0.28 0.26 0.24 0.23 0.23 0.25 0.27 0.30 0.35 0.40 0.47 0.53
0.01 0.01 0.01 0.02 0.02 0.05 0.08 0.11 0.13 0.17 0.25 0.28 0.16 0.11 0.11 0.11 0.12 0.11 0.13 0.15 0.15 0.16 0.20 0.23 0.25 0.28 0.29 0.29 0.28 0.27 0.27 0.28 0.29 0.31 0.33 0.36 0.41 0.48
0.00 0.01 0.01 0.01 0.02 0.03 0.06 0.10 0.16 0.20 0.24 0.29 0.25 0.18 0.16 0.14 0.15 0.15 0.16 0.15 0.17 0.20 0.22 0.23 0.25 0.27 0.27 0.28 0.28 0.28 0.28 0.30 0.36 0.43 0.47 0.49 0.49 0.49
0.00 0.00 0.00 0.00 0.01 0.04 0.08 0.11 0.16 0.21 0.27 0.33 0.31 0.25 0.21 0.20 0.18 0.20 0.24 0.23 0.23 0.21 0.23 0.23 0.27 0.32 0.34 0.38 0.39 0.38 0.39 0.43 0.49 0.57 0.61 0.62 0.62 0.60
0.00 0.00 0.00 0.00 0.01 0.04 0.08 0.11 0.17 0.24 0.30 0.34 0.35 0.32 0.26 0.27 0.30 0.36 0.41 0.45 0.40 0.27 0.32 0.39 0.44 0.51 0.52 0.53 0.58 0.60 0.59 0.59 0.61 0.62 0.63 0.63 0.62 0.64
0.00 0.00 0.00 0.01 0.03 0.04 0.05 0.09 0.11 0.17 0.25 0.29 0.28 0.22 0.21 0.22 0.32 0.39 0.44 0.49 0.45 0.37 0.44 0.51 0.49 0.51 0.51 0.54 0.62 0.62 0.57 0.54 0.53 0.55 0.57 0.57 0.55 0.56
0.00 0.00 0.01 0.02 0.02 0.07 0.11 0.11 0.08 0.07 0.09 0.11 0.12 0.13 0.17 0.22 0.32 0.42 0.51 0.58 0.51 0.42 0.41 0.47 0.41 0.39 0.38 0.40 0.47 0.49 0.46 0.45 0.46 0.47 0.48 0.47 0.45 0.45
0.00 0.01 0.02 0.02 0.04 0.12 0.17 0.17 0.11 0.04 0.03 0.06 0.11 0.12 0.14 0.18 0.25 0.41 0.58 0.68 0.58 0.37 0.31 0.38 0.38 0.38 0.36 0.33 0.36 0.42 0.41 0.41 0.41 0.40 0.40 0.40 0.39 0.40
0.02 0.01 0.02 0.04 0.09 0.17 0.18 0.18 0.11 0.05 0.06 0.06 0.05 0.05 0.04 0.06 0.16 0.32 0.62 0.87 0.72 0.48 0.32 0.38 0.41 0.45 0.50 0.35 0.31 0.35 0.35 0.34 0.33 0.32 0.31 0.31 0.32 0.29
0.05 0.03 0.02 0.07 0.14 0.17 0.13 0.07 0.08 0.14 0.11 0.06 0.05 0.04 0.04 0.04 0.08 0.16 0.36 0.77 0.95 0.73 0.45 0.52 0.58 0.49 0.49 0.39 0.31 0.32 0.33 0.36 0.38 0.36 0.34 0.32 0.28 0.23
0.08 0.04 0.05 0.11 0.12 0.08 0.04 0.05 0.10 0.10 0.05 0.05 0.06 0.06 0.08 0.11 0.15 0.20 0.26 0.39 0.62 0.76 0.61 0.62 0.70 0.55 0.52 0.42 0.34 0.34 0.37 0.46 0.54 0.51 0.47 0.43 0.35 0.31
0.08 0.10 0.11 0.09 0.05 0.02 0.03 0.05 0.06 0.05 0.09 0.15 0.14 0.12 0.15 0.22 0.28 0.31 0.31 0.34 0.40 0.47 0.50 0.52 0.61 0.57 0.53 0.47 0.37 0.38 0.46 0.53 0.66 0.75 0.66 0.50 0.38 0.34
0.11 0.11 0.07 0.03 0.02 0.02 0.02 0.02 0.03 0.07 0.18 0.24 0.20 0.16 0.17 0.24 0.30 0.39 0.48 0.49 0.54 0.53 0.50 0.47 0.48 0.49 0.43 0.35 0.36 0.40 0.50 0.66 0.75 0.88 0.81 0.60 0.45 0.35
0.12 0.05 0.01 0.01 0.02 0.02 0.01 0.01 0.02 0.06 0.12 0.16 0.21 0.22 0.23 0.32 0.41 0.53 0.65 0.69 0.70 0.64 0.55 0.42 0.35 0.31 0.30 0.30 0.32 0.37 0.48 0.65 0.80 0.87 0.79 0.64 0.57 0.46
0.06 0.02 0.02 0.03 0.04 0.04 0.04 0.04 0.04 0.08 0.16 0.23 0.26 0.29 0.34 0.43 0.54 0.63 0.74 0.78 0.71 0.59 0.49 0.39 0.29 0.23 0.22 0.24 0.32 0.43 0.49 0.65 0.79 0.80 0.62 0.48 0.55 0.51
0.03 0.04 0.04 0.04 0.05 0.05 0.07 0.10 0.12 0.13 0.23 0.35 0.41 0.44 0.48 0.54 0.63 0.71 0.73 0.68 0.56 0.45 0.37 0.29 0.24 0.23 0.22 0.21 0.23 0.39 0.54 0.61 0.63 0.61 0.48 0.33 0.41 0.44
0.04 0.05 0.05 0.05 0.06 0.08 0.11 0.17 0.21 0.23 0.31 0.41 0.49 0.52 0.55 0.62 0.69 0.70 0.63 0.54 0.43 0.31 0.21 0.15 0.14 0.17 0.22 0.23 0.26 0.41 0.48 0.48 0.38 0.35 0.33 0.30 0.37 0.39
0.05 0.04 0.04 0.05 0.08 0.10 0.13 0.20 0.29 0.38 0.45 0.54 0.58 0.60 0.61 0.68 0.69 0.61 0.47 0.34 0.23 0.15 0.10 0.07 0.10 0.13 0.15 0.15 0.20 0.35 0.47 0.47 0.33 0.26 0.21 0.18 0.22 0.25
0.04 0.04 0.04 0.05 0.08 0.12 0.17 0.25 0.34 0.41 0.47 0.54 0.59 0.59 0.60 0.61 0.55 0.40 0.23 0.14 0.10 0.08 0.07 0.05 0.05 0.05 0.08 0.11 0.17 0.24 0.31 0.34 0.30 0.21 0.15 0.11 0.12 0.22
0.05 0.06 0.06 0.07 0.10 0.15 0.21 0.27 0.37 0.44 0.49 0.55 0.57 0.54 0.49 0.40 0.25 0.14 0.09 0.08 0.07 0.06 0.05 0.04 0.03 0.04 0.06 0.09 0.12 0.17 0.20 0.20 0.16 0.17 0.24 0.19 0.16 0.19

GEFSNE_prec_meanprecacc_036.txt.gz
Total_Precipitation_Accumulation
0.08 0.10 0.12 0.12 0.13 0.13 0.16 0.23 0.26 0.17 0.06 0.03 0.02 0.01 0.02 0.02 0.02 0.04 0.03 0.03 0.04 0.05 0.07 0.08 0.09 0.13 0.17 0.21 0.27 0.34 0.40 0.45 0.51 0.58 0.65 0.75 0.85 0.95
0.04 0.07 0.09 0.10 0.11 0.13 0.13 0.15 0.22 0.26 0.15 0.04 0.04 0.03 0.05 0.04 0.04 0.07 0.07 0.07 0.09 0.10 0.10 0.12 0.13 0.14 0.16 0.20 0.24 0.28 0.33 0.37 0.42 0.48 0.55 0.60 0.67 0.77
0.03 0.05 0.07 0.09 0.11 0.11 0.12 0.13 0.15 0.21 0.20 0.07 0.05 0.06 0.07 0.05 0.04 0.09 0.09 0.09 0.09 0.11 0.15 0.18 0.22 0.23 0.24 0.25 0.26 0.27 0.29 0.32 0.37 0.44 0.51 0.58 0.62 0.65
0.01 0.02 0.04 0.06 0.08 0.11 0.13 0.13 0.13 0.16 0.22 0.17 0.06 0.05 0.06 0.07 0.08 0.10 0.12 0.14 0.13 0.14 0.19 0.25 0.30 0.32 0.31 0.29 0.28 0.28 0.28 0.30 0.33 0.37 0.42 0.48 0.55 0.61
0.01 0.01 0.01 0.02 0.02 0.05 0.08 0.11 0.13 0.17 0.25 0.29 0.16 0.12 0.11 0.11 0.12 0.11 0.13 0.15 0.15 0.16 0.20 0.23 0.26 0.29 0.31 0.32 0.32 0.31 0.31 0.32 0.34 0.36 0.38 0.41 0.46 0.54
0.00 0.01 0.01 0.01 0.02 0.03 0.06 0.10 0.16 0.21 0.24 0.30 0.26 0.19 0.17 0.14 0.16 0.15 0.16 0.15 0.17 0.20 0.22 0.24 0.26 0.28 0.29 0.29 0.30 0.29 0.29 0.32 0.38 0.46 0.50 0.53 0.53 0.53
0.00 0.00 0.00 0.00 0.01 0.04 0.09 0.12 0.17 0.22 0.29 0.36 0.34 0.27 0.22 0.20 0.19 0.20 0.25 0.24 0.23 0.21 0.23 0.23 0.27 0.32 0.34 0.38 0.39 0.39 0.39 0.44 0.51 0.60 0.65 0.67 0.66 0.65
0.00 0.00 0.00 0.00 0.01 0.04 0.08 0.12 0.19 0.28 0.34 0.40 0.40 0.35 0.27 0.27 0.31 0.38 0.43 0.47 0.41 0.27 0.32 0.39 0.44 0.51 0.52 0.53 0.58 0.60 0.60 0.61 0.64 0.66 0.68 0.68 0.68 0.70
0.00 0.00 0.00 0.01 0.03 0.04 0.05 0.10 0.14 0.21 0.29 0.33 0.30 0.23 0.22 0.23 0.35 0.43 0.47 0.52 0.47 0.38 0.45 0.52 0.49 0.51 0.51 0.54 0.62 0.62 0.58 0.56 0.56 0.58 0.61 0.61 0.59 0.61
0.00 0.00 0.01 0.02 0.03 0.07 0.12 0.15 0.11 0.08 0.10 0.12 0.13 0.13 0.18 0.23 0.34 0.47 0.55 0.61 0.52 0.42 0.41 0.48 0.41 0.39 0.38 0.40 0.47 0.49 0.46 0.46 0.48 0.51 0.52 0.51 0.50 0.49
0.00 0.01 0.03 0.03 0.04 0.15 0.21 0.21 0.12 0.04 0.04 0.07 0.12 0.13 0.15 0.18 0.25 0.46 0.64 0.72 0.59 0.37 0.31 0.38 0.38 0.38 0.36 0.33 0.36 0.42 0.42 0.42 0.43 0.43 0.44 0.44 0.44 0.46
0.02 0.01 0.02 0.04 0.10 0.20 0.21 0.19 0.11 0.05 0.07 0.07 0.05 0.05 0.04 0.06 0.16 0.35 0.71 0.98 0.77 0.51 0.32 0.39 0.43 0.48 0.54 0.35 0.31 0.35 0.35 0.34 0.33 0.33 0.34 0.35 0.36 0.35
0.06 0.03 0.02 0.08 0.16 0.19 0.14 0.07 0.09 0.16 0.12 0.06 0.05 0.04 0.04 0.04 0.08 0.16 0.40 0.90 1.08 0.80 0.46 0.59 0.66 0.52 0.55 0.41 0.31 0.32 0.34 0.38 0.41 0.38 0.37 0.36 0.34 0.32
0.08 0.04 0.05 0.13 0.13 0.09 0.05 0.05 0.11 0.11 0.05 0.05 0.06 0.06 0.08 0.11 0.15 0.21 0.27 0.42 0.69 0.87 0.67 0.72 0.82 0.63 0.60 0.47 0.35 0.34 0.38 0.51 0.64 0.61 0.54 0.50 0.42 0.38
0.09 0.11 0.12 0.09 0.05 0.02 0.03 0.05 0.06 0.05 0.09 0.15 0.14 0.13 0.15 0.22 0.28 0.31 0.31 0.34 0.40 0.48 0.53 0.57 0.70 0.66 0.62 0.55 0.43 0.41 0.50 0.57 0.75 0.90 0.81 0.63 0.46 0.38
0.11 0.11 0.07 0.03 0.02 0.02 0.02 0.02 0.03 0.07 0.18 0.25 0.21 0.17 0.17 0.24 0.30 0.39 0.49 0.50 0.55 0.53 0.50 0.48 0.52 0.58 0.52 0.42 0.47 0.51 0.62 0.82 0.92 1.09 1.02 0.76 0.56 0.41
0.12 0.05 0.01 0.01 0.02 0.02 0.01 0.01 0.02 0.06 0.13 0.17 0.21 0.23 0.23 0.32 0.41 0.53 0.67 0.71 0.72 0.65 0.56 0.43 0.35 0.34 0.37 0.38 0.41 0.46 0.61 0.83 1.02 1.10 1.00 0.83 0.69 0.53
0.06 0.02 0.02 0.03 0.04 0.04 0.04 0.05 0.04 0.08 0.16 0.24 0.27 0.30 0.36 0.44 0.55 0.63 0.75 0.80 0.74 0.61 0.50 0.40 0.30 0.24 0.23 0.26 0.39 0.58 0.66 0.84 1.00 0.98 0.76 0.63 0.70 0.61
0.03 0.04 0.04 0.04 0.05 0.06 0.08 0.11 0.12 0.13 0.24 0.36 0.42 0.45 0.50 0.55 0.64 0.72 0.74 0.69 0.58 0.47 0.38 0.32 0.27 0.27 0.26 0.24 0.26 0.51 0.76 0.80 0.79 0.75 0.61 0.48 0.57 0.56
0.04 0.06 0.05 0.05 0.06 0.09 0.12 0.18 0.22 0.23 0.31 0.42 0.50 0.54 0.57 0.64 0.71 0.71 0.65 0.57 0.46 0.33 0.22 0.16 0.16 0.24 0.33 0.37 0.38 0.55 0.65 0.66 0.53 0.49 0.47 0.44 0.51 0.50
0.05 0.05 0.04 0.06 0.08 0.11 0.14 0.21 0.30 0.39 0.46 0.56 0.60 0.62 0.64 0.71 0.71 0.63 0.49 0.36 0.25 0.17 0.12 0.10 0.14 0.20 0.25 0.21 0.28 0.47 0.61 0.65 0.52 0.41 0.32 0.27 0.31 0.34
0.05 0.05 0.04 0.05 0.09 0.13 0.18 0.26 0.35 0.42 0.49 0.56 0.61 0.61 0.63 0.65 0.58 0.42 0.26 0.17 0.12 0.11 0.10 0.08 0.07 0.08 0.11 0.15 0.24 0.35 0.44 0.46 0.40 0.30 0.26 0.21 0.22 0.40
0.05 0.06 0.06 0.07 0.11 0.16 0.22 0.28 0.38 0.46 0.52 0.59 0.61 0.57 0.52 0.42 0.27 0.17 0.12 0.11 0.10 0.08 0.07 0.06 0.05 0.06 0.10 0.13 0.17 0.23 0.27 0.28 0.23 0.25 0.40 0.37 0.35 0.44

GEFSNE_prec_meanprecacc_042.txt.gz
Total_Precipitation_Accumulation
0.08 0.10 0.12 0.12 0.13 0.13 0.16 0.23 0.26 0.17 0.06 0.03 0.02 0.01 0.02 0.02 0.02 0.04 0.03 0.03 0.04 0.06 0.08 0.09 0.11 0.15 0.19 0.24 0.30 0.38 0.45 0.50 0.56 0.64 0.71 0.81 0.91 1.00
0.04 0.07 0.09 0.10 0.11 0.13 0.13 0.15 0.22 0.26 0.15 0.04 0.04 0.03 0.05 0.04 0.04 0.07 0.07 0.07 0.09 0.10 0.11 0.13 0.15 0.16 0.19 0.23 0.28 0.33 0.37 0.42 0.48 0.55 0.62 0.69 0.76 0.87
0.03 0.05 0.07 0.09 0.11 0.11 0.12 0.13 0.15 0.21 0.20 0.07 0.05 0.06 0.07 0.05 0.04 0.09 0.09 0.09 0.09 0.12 0.16 0.19 0.23 0.25 0.26 0.28 0.29 0.31 0.34 0.37 0.43 0.51 0.60 0.67 0.73 0.77
0.01 0.02 0.04 0.06 0.08 0.11 0.13 0.13 0.13 0.16 0.23 0.17 0.06 0.05 0.06 0.07 0.08 0.10 0.12 0.14 0.13 0.14 0.19 0.25 0.31 0.34 0.33 0.32 0.31 0.31 0.33 0.35 0.39 0.43 0.48 0.55 0.63 0.71
0.01 0.01 0.01 0.02 0.02 0.05 0.08 0.11 0.13 0.17 0.26 0.30 0.16 0.12 0.12 0.11 0.13 0.11 0.13 0.16 0.15 0.16 0.20 0.23 0.26 0.30 0.32 0.34 0.34 0.34 0.34 0.35 0.37 0.40 0.43 0.46 0.52 0.60
0.00 0.01 0.01 0.01 0.02 0.03 0.06 0.10 0.17 0.21 0.25 0.31 0.28 0.20 0.18 0.14 0.16 0.15 0.16 0.15 0.17 0.20 0.22 0.24 0.26 0.28 0.29 0.29 0.30 0.30 0.30 0.34 0.40 0.48 0.53 0.56 0.56 0.57
0.00 0.00 0.00 0.00 0.01 0.04 0.09 0.13 0.17 0.23 0.31 0.39 0.37 0.29 0.23 0.20 0.19 0.20 0.25 0.24 0.23 0.21 0.23 0.23 0.27 0.32 0.34 0.38 0.39 0.39 0.39 0.45 0.53 0.62 0.68 0.70 0.70 0.69
0.00 0.00 0.00 0.00 0.01 0.05 0.08 0.12 0.21 0.30 0.39 0.45 0.43 0.36 0.27 0.27 0.31 0.38 0.45 0.49 0.42 0.27 0.33 0.39 0.44 0.51 0.52 0.53 0.58 0.60 0.60 0.63 0.66 0.69 0.72 0.72 0.73 0.75
0.00 0.00 0.00 0.01 0.03 0.04 0.05 0.10 0.15 0.23 0.32 0.35 0.31 0.24 0.22 0.24 0.37 0.46 0.50 0.54 0.49 0.38 0.45 0.52 0.49 0.51 0.51 0.54 0.62 0.62 0.58 0.57 0.58 0.61 0.64 0.64 0.63 0.65
0.00 0.00 0.01 0.02 0.03 0.07 0.13 0.17 0.12 0.09 0.10 0.12 0.13 0.14 0.18 0.24 0.36 0.50 0.58 0.62 0.52 0.42 0.41 0.48 0.41 0.39 0.38 0.40 0.47 0.49 0.46 0.46 0.49 0.53 0.55 0.55 0.53 0.53
0.00 0.01 0.03 0.03 0.05 0.16 0.24 0.24 0.13 0.04 0.04 0.07 0.12 0.13 0.15 0.18 0.26 0.47 0.66 0.74 0.61 0.37 0.31 0.38 0.38 0.38 0.36 0.33 0.36 0.42 0.42 0.43 0.44 0.45 0.46 0.47 0.48 0.50
0.02 0.01 0.02 0.04 0.11 0.22 0.23 0.20 0.11 0.05 0.08 0.07 0.06 0.05 0.04 0.06 0.16 0.36 0.74 1.04 0.81 0.52 0.32 0.41 0.45 0.50 0.57 0.35 0.31 0.35 0.35 0.34 0.34 0.35 0.36 0.38 0.41 0.43
0.06 0.03 0.02 0.08 0.18 0.20 0.15 0.08 0.09 0.17 0.14 0.06 0.05 0.04 0.04 0.04 0.08 0.16 0.42 0.96 1.17 0.85 0.47 0.65 0.72 0.55 0.59 0.42 0.31 0.32 0.34 0.39 0.42 0.39 0.38 0.39 0.40 0.42
0.08 0.05 0.06 0.14 0.14 0.09 0.05 0.05 0.12 0.12 0.05 0.05 0.06 0.06 0.08 0.11 0.15 0.21 0.27 0.43 0.73 0.92 0.70 0.79 0.92 0.68 0.66 0.51 0.36 0.34 0.38 0.52 0.67 0.64 0.57 0.54 0.46 0.45
0.09 0.11 0.13 0.10 0.05 0.02 0.03 0.05 0.06 0.05 0.09 0.16 0.15 0.13 0.15 0.22 0.28 0.31 0.31 0.34 0.41 0.49 0.53 0.60 0.78 0.73 0.70 0.63 0.49 0.43 0.52 0.59 0.77 0.95 0.88 0.72 0.54 0.46
0.12 0.12 0.07 0.03 0.02 0.02 0.02 0.02 0.03 0.07 0.19 0.26 0.22 0.17 0.18 0.25 0.31 0.40 0.50 0.51 0.55 0.53 0.50 0.48 0.56 0.67 0.61 0.47 0.55 0.57 0.67 0.89 0.98 1.16 1.12 0.85 0.64 0.49
0.13 0.05 0.01 0.01 0.02 0.02 0.01 0.01 0.02 0.06 0.13 0.17 0.22 0.24 0.24 0.32 0.42 0.54 0.67 0.72 0.73 0.66 0.56 0.43 0.36 0.37 0.42 0.44 0.45 0.49 0.65 0.89 1.10 1.20 1.12 0.94 0.78 0.61
0.07 0.02 0.02 0.03 0.04 0.04 0.04 0.05 0.04 0.08 0.17 0.25 0.28 0.31 0.37 0.45 0.55 0.64 0.76 0.81 0.75 0.62 0.51 0.40 0.31 0.25 0.23 0.26 0.40 0.62 0.72 0.92 1.08 1.07 0.87 0.74 0.80 0.69
0.03 0.04 0.04 0.04 0.05 0.06 0.08 0.11 0.12 0.13 0.25 0.37 0.44 0.47 0.52 0.57 0.65 0.73 0.75 0.71 0.59 0.47 0.39 0.33 0.30 0.31 0.29 0.25 0.26 0.54 0.87 0.92 0.86 0.83 0.72 0.61 0.70 0.67
0.04 0.06 0.06 0.05 0.06 0.09 0.13 0.19 0.23 0.24 0.32 0.44 0.51 0.56 0.60 0.66 0.73 0.72 0.66 0.58 0.48 0.34 0.23 0.16 0.19 0.31 0.44 0.48 0.47 0.59 0.71 0.79 0.66 0.61 0.56 0.52 0.60 0.58
0.05 0.05 0.04 0.06 0.09 0.12 0.15 0.22 0.31 0.41 0.48 0.59 0.62 0.64 0.67 0.74 0.73 0.64 0.50 0.37 0.27 0.19 0.13 0.11 0.16 0.25 0.31 0.26 0.33 0.50 0.65 0.71 0.63 0.54 0.41 0.33 0.36 0.41
0.05 0.05 0.05 0.06 0.10 0.15 0.19 0.27 0.37 0.43 0.51 0.59 0.63 0.64 0.66 0.68 0.61 0.44 0.28 0.19 0.14 0.13 0.11 0.09 0.08 0.09 0.12 0.17 0.27 0.38 0.47 0.49 0.43 0.34 0.34 0.35 0.39 0.62
0.06 0.07 0.07 0.08 0.12 0.17 0.23 0.29 0.40 0.47 0.54 0.62 0.64 0.60 0.55 0.45 0.30 0.19 0.14 0.13 0.12 0.10 0.08 0.06 0.06 0.07 0.11 0.15 0.20 0.26 0.30 0.30 0.24 0.28 0.46 0.49 0.54 0.67

GEFSNE_prec_meanprecacc_048.txt.gz
Total_Precipitation_Accumulation
0.08 0.10 0.12 0.12 0.13 0.13 0.16 0.23 0.26 0.17 0.06 0.03 0.02 0.01 0.02 0.02 0.02 0.04 0.03 0.03 0.04 0.06 0.08 0.10 0.12 0.16 0.20 0.25 0.32 0.40 0.47 0.53 0.60 0.68 0.75 0.85 0.95 1.05
0.04 0.07 0.09 0.10 0.11 0.13 0.13 0.15 0.22 0.26 0.15 0.04 0.04 0.03 0.05 0.04 0.04 0.07 0.07 0.07 0.09 0.10 0.11 0.13 0.15 0.17 0.20 0.24 0.30 0.35 0.40 0.45 0.52 0.59 0.68 0.75 0.83 0.94
0.03 0.05 0.07 0.09 0.11 0.11 0.12 0.13 0.15 0.21 0.20 0.07 0.05 0.06 0.07 0.05 0.04 0.09 0.09 0.09 0.09 0.12 0.16 0.19 0.23 0.25 0.27 0.29 0.31 0.33 0.36 0.40 0.46 0.55 0.64 0.72 0.79 0.83
0.01 0.02 0.04 0.06 0.08 0.11 0.13 0.13 0.13 0.16 0.23 0.17 0.06 0.05 0.06 0.07 0.08 0.10 0.12 0.14 0.13 0.14 0.19 0.25 0.31 0.34 0.33 0.32 0.32 0.33 0.34 0.37 0.41 0.46 0.52 0.59 0.67 0.76
0.01 0.01 0.01 0.02 0.02 0.05 0.08 0.11 0.13 0.17 0.26 0.30 0.17 0.12 0.12 0.11 0.13 0.12 0.13 0.16 0.15 0.16 0.20 0.23 0.26 0.30 0.32 0.34 0.35 0.35 0.35 0.36 0.39 0.42 0.45 0.49 0.55 0.63
0.00 0.01 0.01 0.01 0.02 0.03 0.06 0.10 0.17 0.21 0.25 0.31 0.28 0.21 0.18 0.14 0.16 0.15 0.16 0.15 0.17 0.20 0.22 0.24 0.26 0.28 0.29 0.30 0.30 0.30 0.30 0.34 0.41 0.49 0.55 0.58 0.58 0.59
0.00 0.00 0.00 0.00 0.01 0.04 0.09 0.13 0.18 0.23 0.32 0.40 0.39 0.30 0.23 0.21 0.19 0.20 0.25 0.24 0.23 0.21 0.23 0.23 0.27 0.32 0.34 0.38 0.39 0.39 0.39 0.45 0.53 0.63 0.69 0.72 0.73 0.72
0.00 0.00 0.00 0.00 0.01 0.05 0.09 0.13 0.21 0.31 0.40 0.47 0.45 0.38 0.28 0.28 0.31 0.39 0.45 0.50 0.43 0.27 0.33 0.39 0.44 0.51 0.52 0.53 0.58 0.60 0.60 0.63 0.66 0.70 0.73 0.74 0.75 0.78
0.00 0.00 0.00 0.01 0.03 0.04 0.05 0.10 0.15 0.24 0.33 0.37 0.34 0.24 0.23 0.24 0.37 0.47 0.51 0.55 0.50 0.38 0.45 0.52 0.49 0.51 0.51 0.54 0.62 0.62 0.58 0.57 0.58 0.61 0.65 0.66 0.65 0.68
0.00 0.00 0.01 0.02 0.03 0.07 0.14 0.18 0.13 0.09 0.11 0.13 0.13 0.14 0.19 0.24 0.37 0.52 0.60 0.64 0.52 0.42 0.41 0.48 0.41 0.39 0.38 0.40 0.47 0.49 0.46 0.47 0.50 0.53 0.55 0.56 0.55 0.56
0.00 0.01 0.03 0.03 0.05 0.16 0.25 0.25 0.14 0.04 0.04 0.07 0.12 0.14 0.15 0.19 0.26 0.48 0.67 0.76 0.62 0.37 0.31 0.38 0.38 0.38 0.36 0.33 0.36 0.42 0.42 0.43 0.44 0.45 0.47 0.48 0.50 0.53
0.02 0.01 0.02 0.05 0.11 0.23 0.25 0.22 0.12 0.05 0.08 0.07 0.06 0.05 0.04 0.06 0.16 0.36 0.74 1.07 0.85 0.54 0.32 0.41 0.45 0.51 0.59 0.36 0.31 0.35 0.35 0.34 0.34 0.35 0.36 0.39 0.43 0.45
0.06 0.03 0.02 0.08 0.18 0.22 0.17 0.08 0.09 0.17 0.14 0.06 0.05 0.04 0.04 0.04 0.08 0.16 0.42 0.99 1.23 0.88 0.48 0.68 0.77 0.57 0.63 0.44 0.31 0.32 0.34 0.39 0.42 0.39 0.38 0.39 0.41 0.46
0.08 0.05 0.06 0.14 0.15 0.10 0.05 0.05 0.12 0.12 0.05 0.05 0.06 0.06 0.08 0.11 0.15 0.21 0.27 0.43 0.75 0.95 0.71 0.83 1.01 0.73 0.72 0.55 0.36 0.34 0.38 0.52 0.67 0.64 0.57 0.55 0.48 0.47
0.09 0.12 0.13 0.10 0.05 0.02 0.03 0.05 0.06 0.05 0.09 0.16 0.15 0.13 0.15 0.22 0.28 0.32 0.31 0.34 0.41 0.49 0.54 0.61 0.83 0.80 0.78 0.70 0.52 0.44 0.52 0.59 0.77 0.95 0.90 0.74 0.56 0.48
0.12 0.12 0.07 0.03 0.02 0.02 0.02 0.02 0.03 0.07 0.19 0.26 0.22 0.17 0.18 0.25 0.31 0.40 0.51 0.52 0.56 0.53 0.50 0.49 0.58 0.74 0.69 0.52 0.59 0.59 0.68 0.90 0.98 1.17 1.13 0.87 0.65 0.52
0.13 0.05 0.01 0.01 0.02 0.02 0.01 0.01 0.02 0.06 0.13 0.18 0.23 0.24 0.24 0.32 0.42 0.54 0.68 0.74 0.75 0.67 0.56 0.43 0.36 0.39 0.47 0.49 0.50 0.51 0.65 0.90 1.11 1.22 1.16 0.98 0.79 0.64
0.07 0.02 0.02 0.03 0.04 0.04 0.04 0.05 0.04 0.08 0.17 0.26 0.29 0.32 0.38 0.46 0.56 0.64 0.76 0.83 0.77 0.63 0.52 0.41 0.32 0.26 0.24 0.26 0.41 0.63 0.74 0.93 1.09 1.08 0.90 0.82 0.85 0.72
0.03 0.04 0.04 0.04 0.05 0.06 0.08 0.11 0.13 0.14 0.25 0.39 0.45 0.49 0.54 0.58 0.66 0.73 0.76 0.72 0.60 0.48 0.39 0.34 0.32 0.37 0.34 0.27 0.26 0.55 0.91 0.97 0.89 0.85 0.74 0.68 0.79 0.73
0.04 0.06 0.06 0.05 0.07 0.10 0.13 0.19 0.23 0.25 0.33 0.45 0.53 0.58 0.62 0.69 0.74 0.74 0.68 0.60 0.50 0.35 0.23 0.17 0.21 0.37 0.55 0.56 0.51 0.60 0.72 0.85 0.76 0.69 0.60 0.55 0.63 0.62
0.05 0.05 0.04 0.06 0.09 0.12 0.16 0.23 0.33 0.42 0.50 0.61 0.64 0.66 0.69 0.77 0.75 0.65 0.52 0.38 0.29 0.21 0.15 0.11 0.16 0.27 0.36 0.32 0.36 0.51 0.65 0.73 0.71 0.69 0.56 0.44 0.43 0.45
0.05 0.05 0.05 0.06 0.11 0.16 0.21 0.29 0.38 0.45 0.53 0.61 0.66 0.67 0.69 0.71 0.65 0.46 0.29 0.21 0.16 0.15 0.13 0.10 0.08 0.09 0.13 0.21 0.30 0.39 0.48 0.49 0.44 0.38 0.44 0.52 0.61 0.85
0.06 0.07 0.07 0.09 0.13 0.19 0.25 0.31 0.41 0.49 0.57 0.65 0.67 0.63 0.58 0.48 0.32 0.22 0.17 0.15 0.14 0.12 0.09 0.07 0.06 0.07 0.11 0.16 0.22 0.28 0.32 0.31 0.26 0.29 0.48 0.53 0.63 0.82

GEFSNE_prec_meanprecacc_054.txt.gz
Total_Precipitation_Accumulation
0.09 0.10 0.12 0.12 0.13 0.13 0.16 0.23 0.26 0.17 0.06 0.03 0.02 0.01 0.02 0.02 0.02 0.04 0.03 0.03 0.04 0.06 0.08 0.10 0.12 0.17 0.21 0.26 0.34 0.42 0.50 0.56 0.63 0.71 0.80 0.90 1.00 1.10
0.04 0.07 0.09 0.10 0.11 0.13 0.13 0.15 0.22 0.26 0.15 0.04 0.04 0.03 0.05 0.04 0.04 0.07 0.07 0.07 0.09 0.10 0.11 0.14 0.16 0.18 0.21 0.25 0.31 0.36 0.42 0.48 0.55 0.63 0.72 0.81 0.89 1.01
0.03 0.05 0.07 0.09 0.11 0.11 0.12 0.13 0.15 0.21 0.20 0.07 0.05 0.06 0.07 0.05 0.04 0.09 0.09 0.09 0.09 0.12 0.16 0.20 0.24 0.26 0.28 0.30 0.32 0.34 0.37 0.42 0.49 0.58 0.68 0.77 0.83 0.88
0.01 0.02 0.04 0.06 0.08 0.11 0.13 0.13 0.13 0.16 0.23 0.17 0.06 0.05 0.06 0.07 0.08 0.10 0.12 0.14 0.13 0.14 0.19 0.25 0.31 0.34 0.33 0.33 0.32 0.34 0.36 0.39 0.43 0.47 0.54 0.61 0.70 0.79
0.01 0.01 0.01 0.02 0.02 0.05 0.08 0.11 0.13 0.17 0.26 0.30 0.17 0.12 0.12 0.11 0.13 0.12 0.13 0.16 0.15 0.16 0.20 0.23 0.26 0.30 0.33 0.35 0.35 0.36 0.36 0.37 0.39 0.43 0.46 0.50 0.56 0.65
0.00 0.01 0.01 0.01 0.02 0.03 0.06 0.10 0.17 0.21 0.25 0.31 0.28 0.21 0.18 0.14 0.16 0.15 0.16 0.15 0.17 0.20 0.22 0.24 0.26 0.28 0.29 0.30 0.30 0.30 0.30 0.34 0.41 0.50 0.56 0.59 0.60 0.61
0.00 0.00 0.00 0.01 0.01 0.04 0.09 0.13 0.18 0.23 0.32 0.41 0.39 0.30 0.23 0.21 0.19 0.20 0.25 0.24 0.23 0.21 0.23 0.23 0.27 0.32 0.34 0.38 0.39 0.39 0.39 0.45 0.54 0.64 0.71 0.74 0.75 0.74
0.00 0.00 0.00 0.00 0.01 0.05 0.09 0.13 0.21 0.31 0.40 0.47 0.46 0.38 0.28 0.28 0.31 0.39 0.45 0.50 0.43 0.27 0.33 0.39 0.44 0.51 0.52 0.53 0.58 0.60 0.60 0.63 0.67 0.71 0.74 0.76 0.77 0.80
0.00 0.00 0.00 0.01 0.03 0.04 0.05 0.10 0.15 0.24 0.34 0.38 0.34 0.24 0.23 0.24 0.37 0.48 0.52 0.57 0.50 0.38 0.45 0.52 0.49 0.51 0.51 0.54 0.62 0.62 0.58 0.57 0.58 0.62 0.65 0.67 0.66 0.69
0.00 0.00 0.01 0.02 0.03 0.07 0.14 0.18 0.13 0.09 0.11 0.13 0.14 0.14 0.19 0.24 0.38 0.54 0.62 0.65 0.53 0.42 0.41 0.48 0.41 0.39 0.38 0.40 0.47 0.49 0.46 0.47 0.50 0.53 0.56 0.57 0.56 0.57
0.00 0.01 0.03 0.03 0.05 0.17 0.25 0.25 0.14 0.04 0.04 0.07 0.12 0.14 0.16 0.19 0.27 0.48 0.67 0.77 0.63 0.37 0.31 0.38 0.38 0.38 0.36 0.33 0.36 0.42 0.42 0.43 0.44 0.45 0.47 0.48 0.50 0.54
0.02 0.01 0.02 0.05 0.12 0.24 0.25 0.23 0.13 0.05 0.08 0.07 0.06 0.05 0.04 0.06 0.16 0.36 0.75 1.10 0.88 0.56 0.32 0.42 0.46 0.52 0.60 0.36 0.31 0.35 0.35 0.34 0.34 0.35 0.36 0.39 0.43 0.46
0.06 0.03 0.02 0.08 0.19 0.22 0.18 0.09 0.10 0.18 0.14 0.06 0.05 0.04 0.04 0.04 0.08 0.16 0.42 1.01 1.28 0.92 0.48 0.71 0.82 0.59 0.67 0.45 0.31 0.32 0.34 0.39 0.42 0.39 0.38 0.39 0.41 0.47
0.08 0.05 0.06 0.14 0.16 0.10 0.05 0.05 0.12 0.12 0.05 0.05 0.06 0.06 0.08 0.11 0.15 0.21 0.27 0.44 0.76 0.96 0.71 0.86 1.09 0.78 0.77 0.58 0.37 0.34 0.38 0.52 0.67 0.64 0.57 0.55 0.48 0.48
0.09 0.12 0.13 0.10 0.05 0.02 0.03 0.05 0.06 0.05 0.09 0.16 0.15 0.13 0.15 0.22 0.28 0.32 0.31 0.34 0.41 0.49 0.54 0.62 0.86 0.84 0.83 0.74 0.53 0.44 0.52 0.59 0.77 0.95 0.90 0.74 0.56 0.48
0.12 0.12 0.07 0.03 0.02 0.02 0.02 0.02 0.03 0.07 0.19 0.26 0.22 0.17 0.18 0.25 0.31 0.40 0.51 0.53 0.57 0.53 0.50 0.49 0.59 0.76 0.74 0.55 0.61 0.61 0.68 0.91 0.98 1.17 1.13 0.87 0.65 0.52
0.14 0.05 0.01 0.01 0.02 0.02 0.01 0.01 0.02 0.06 0.13 0.18 0.23 0.25 0.24 0.33 0.42 0.54 0.69 0.75 0.77 0.68 0.57 0.43 0.36 0.40 0.49 0.51 0.52 0.51 0.65 0.90 1.11 1.22 1.17 0.99 0.80 0.64
0.07 0.02 0.02 0.03 0.04 0.04 0.04 0.05 0.04 0.08 0.17 0.27 0.30 0.33 0.39 0.47 0.57 0.64 0.77 0.84 0.78 0.63 0.52 0.41 0.32 0.27 0.24 0.26 0.41 0.64 0.74 0.94 1.09 1.08 0.92 0.85 0.86 0.72
0.03 0.04 0.04 0.05 0.05 0.06 0.08 0.12 0.13 0.14 0.26 0.40 0.47 0.50 0.56 0.60 0.67 0.74 0.77 0.73 0.61 0.48 0.40 0.34 0.34 0.42 0.39 0.28 0.27 0.55 0.93 1.00 0.91 0.87 0.75 0.70 0.81 0.73
0.04 0.06 0.06 0.05 0.07 0.10 0.14 0.20 0.24 0.25 0.34 0.46 0.54 0.59 0.64 0.71 0.76 0.75 0.69 0.61 0.51 0.37 0.24 0.17 0.21 0.42 0.64 0.63 0.54 0.60 0.73 0.87 0.83 0.76 0.63 0.56 0.64 0.62
0.05 0.05 0.05 0.06 0.10 0.13 0.17 0.24 0.33 0.43 0.51 0.62 0.65 0.67 0.71 0.80 0.78 0.67 0.53 0.39 0.30 0.23 0.16 0.12 0.16 0.28 0.40 0.37 0.39 0.51 0.65 0.74 0.75 0.79 0.67 0.53 0.47 0.47
0.05 0.05 0.05 0.07 0.12 0.17 0.22 0.29 0.39 0.46 0.55 0.63 0.67 0.68 0.71 0.74 0.68 0.49 0.31 0.23 0.18 0.16 0.14 0.10 0.08 0.10 0.15 0.26 0.34 0.41 0.48 0.49 0.44 0.39 0.48 0.62 0.76 0.98
0.06 0.08 0.07 0.09 0.14 0.20 0.26 0.32 0.43 0.50 0.58 0.67 0.68 0.64 0.60 0.50 0.34 0.24 0.19 0.17 0.16 0.14 0.11 0.08 0.06 0.07 0.12 0.18 0.25 0.31 0.33 0.32 0.26 0.30 0.48 0.55 0.67 0.87

GEFSNE_prec_meanprecacc_060.txt.gz
Total_Precipitation_Accumulation
0.13 0.14 0.16 0.14 0.14 0.14 0.17 0.23 0.26 0.17 0.06 0.03 0.02 0.01 0.02 0.03 0.02 0.04 0.03 0.03 0.04 0.06 0.09 0.10 0.12 0.17 0.22 0.27 0.35 0.43 0.51 0.58 0.65 0.73 0.82 0.92 1.04 1.14
0.09 0.10 0.11 0.12 0.12 0.13 0.14 0.16 0.22 0.26 0.15 0.04 0.04 0.03 0.05 0.04 0.04 0.07 0.07 0.07 0.09 0.10 0.11 0.14 0.16 0.18 0.22 0.26 0.32 0.38 0.43 0.50 0.57 0.66 0.75 0.84 0.93 1.05
0.07 0.09 0.09 0.11 0.12 0.11 0.12 0.13 0.15 0.22 0.20 0.07 0.05 0.06 0.07 0.05 0.04 0.09 0.09 0.09 0.09 0.12 0.16 0.20 0.24 0.26 0.28 0.30 0.33 0.35 0.39 0.43 0.51 0.60 0.70 0.79 0.86 0.91
0.05 0.06 0.07 0.08 0.10 0.13 0.14 0.14 0.13 0.16 0.23 0.18 0.06 0.05 0.06 0.07 0.08 0.10 0.12 0.14 0.13 0.14 0.19 0.26 0.32 0.34 0.34 0.33 0.33 0.35 0.37 0.40 0.44 0.48 0.55 0.62 0.72 0.81
0.05 0.06 0.06 0.07 0.07 0.08 0.10 0.12 0.14 0.17 0.26 0.30 0.17 0.12 0.12 0.11 0.13 0.12 0.13 0.16 0.15 0.16 0.20 0.23 0.26 0.30 0.33 0.35 0.36 0.36 0.36 0.37 0.40 0.43 0.47 0.51 0.57 0.66
0.08 0.08 0.08 0.07 0.06 0.06 0.07 0.10 0.17 0.21 0.25 0.31 0.28 0.21 0.18 0.14 0.16 0.15 0.16 0.15 0.17 0.20 0.22 0.24 0.26 0.28 0.29 0.30 0.30 0.30 0.31 0.34 0.41 0.50 0.57 0.60 0.61 0.63
0.09 0.07 0.05 0.04 0.03 0.04 0.09 0.13 0.18 0.23 0.32 0.41 0.39 0.30 0.23 0.21 0.19 0.20 0.25 0.24 0.23 0.21 0.23 0.23 0.27 0.32 0.34 0.38 0.39 0.39 0.39 0.45 0.54 0.65 0.72 0.75 0.76 0.76
0.05 0.03 0.02 0.02 0.02 0.05 0.09 0.13 0.21 0.31 0.40 0.47 0.46 0.39 0.28 0.28 0.31 0.39 0.45 0.51 0.44 0.27 0.33 0.39 0.44 0.51 0.52 0.53 0.58 0.60 0.60 0.63 0.67 0.71 0.75 0.77 0.78 0.81
0.04 0.02 0.01 0.01 0.03 0.04 0.05 0.10 0.15 0.24 0.34 0.38 0.34 0.24 0.23 0.24 0.38 0.49 0.53 0.58 0.51 0.38 0.45 0.52 0.49 0.51 0.51 0.54 0.62 0.62 0.58 0.57 0.58 0.62 0.66 0.68 0.67 0.71
0.01 0.01 0.01 0.02 0.03 0.07 0.14 0.18 0.13 0.09 0.11 0.13 0.14 0.14 0.19 0.25 0.40 0.57 0.65 0.66 0.53 0.42 0.41 0.48 0.41 0.39 0.38 0.40 0.47 0.49 0.46 0.47 0.50 0.54 0.56 0.57 0.57 0.58
0.00 0.01 0.03 0.03 0.05 0.17 0.26 0.25 0.14 0.04 0.04 0.07 0.13 0.14 0.16 0.20 0.27 0.49 0.68 0.77 0.63 0.37 0.31 0.38 0.38 0.38 0.36 0.33 0.36 0.42 0.42 0.43 0.44 0.45 0.47 0.49 0.51 0.55
0.02 0.01 0.02 0.05 0.12 0.24 0.26 0.23 0.13 0.05 0.08 0.07 0.06 0.05 0.04 0.06 0.16 0.36 0.75 1.12 0.90 0.57 0.32 0.42 0.47 0.53 0.62 0.36 0.31 0.35 0.35 0.34 0.34 0.35 0.36 0.39 0.43 0.46
0.06 0.03 0.02 0.08 0.19 0.23 0.18 0.09 0.10 0.18 0.15 0.06 0.05 0.04 0.04 0.04 0.08 0.16 0.42 1.03 1.32 0.94 0.48 0.73 0.85 0.61 0.69 0.46 0.31 0.32 0.34 0.39 0.42 0.39 0.38 0.39 0.41 0.47
0.08 0.05 0.06 0.14 0.16 0.11 0.05 0.05 0.12 0.13 0.05 0.05 0.06 0.06 0.08 0.11 0.15 0.21 0.27 0.44 0.77 0.97 0.72 0.88 1.15 0.81 0.80 0.60 0.37 0.34 0.38 0.52 0.67 0.64 0.57 0.55 0.48 0.48
0.09 0.12 0.14 0.11 0.06 0.02 0.03 0.05 0.06 0.05 0.09 0.16 0.15 0.13 0.15 0.22 0.28 0.32 0.31 0.34 0.41 0.49 0.54 0.62 0.88 0.87 0.87 0.78 0.55 0.44 0.52 0.59 0.77 0.95 0.90 0.74 0.56 0.48
0.12 0.12 0.07 0.03 0.02 0.02 0.02 0.02 0.03 0.07 0.19 0.26 0.22 0.17 0.18 0.25 0.31 0.40 0.51 0.53 0.58 0.53 0.50 0.49 0.59 0.78 0.77 0.57 0.63 0.62 0.68 0.91 0.98 1.17 1.13 0.87 0.65 0.52
0.14 0.05 0.01 0.01 0.02 0.02 0.01 0.01 0.02 0.06 0.13 0.18 0.24 0.25 0.25 0.33 0.42 0.54 0.69 0.76 0.78 0.68 0.57 0.43 0.36 0.40 0.50 0.53 0.54 0.52 0.66 0.90 1.11 1.22 1.17 1.00 0.80 0.64
0.07 0.02 0.02 0.03 0.04 0.04 0.04 0.05 0.04 0.08 0.17 0.27 0.30 0.34 0.40 0.48 0.57 0.64 0.77 0.85 0.79 0.64 0.52 0.41 0.33 0.28 0.25 0.27 0.42 0.64 0.75 0.94 1.09 1.08 0.92 0.86 0.87 0.72
0.03 0.04 0.05 0.05 0.05 0.06 0.09 0.12 0.13 0.14 0.26 0.40 0.48 0.51 0.57 0.61 0.68 0.75 0.77 0.74 0.62 0.49 0.40 0.34 0.35 0.47 0.43 0.30 0.27 0.55 0.94 1.02 0.93 0.87 0.75 0.70 0.82 0.73
0.04 0.06 0.06 0.05 0.07 0.10 0.14 0.20 0.24 0.25 0.34 0.46 0.55 0.60 0.66 0.73 0.77 0.76 0.70 0.63 0.53 0.38 0.24 0.17 0.22 0.48 0.74 0.70 0.58 0.61 0.73 0.91 0.90 0.81 0.65 0.57 0.64 0.62
0.05 0.05 0.05 0.07 0.10 0.14 0.18 0.25 0.34 0.44 0.51 0.63 0.66 0.68 0.73 0.82 0.79 0.68 0.54 0.40 0.32 0.24 0.18 0.12 0.16 0.30 0.46 0.45 0.43 0.52 0.65 0.74 0.80 0.90 0.77 0.60 0.50 0.47
0.05 0.05 0.05 0.07 0.13 0.18 0.23 0.30 0.40 0.47 0.55 0.64 0.68 0.69 0.72 0.76 0.70 0.50 0.33 0.25 0.19 0.18 0.16 0.11 0.08 0.10 0.19 0.33 0.39 0.42 0.48 0.49 0.44 0.40 0.53 0.71 0.88 1.05
0.07 0.08 0.07 0.10 0.15 0.21 0.27 0.33 0.43 0.51 0.59 0.69 0.70 0.66 0.62 0.52 0.36 0.26 0.21 0.20 0.19 0.16 0.13 0.09 0.06 0.08 0.14 0.22 0.30 0.34 0.35 0.33 0.27 0.30 0.49 0.55 0.68 0.89

GEFSNE_prec_meanprecacc_066.txt.gz
Total_Precipitation_Accumulation
0.24 0.26 0.28 0.26 0.25 0.24 0.26 0.32 0.36 0.27 0.15 0.09 0.07 0.05 0.05 0.04 0.03 0.05 0.03 0.03 0.04 0.06 0.09 0.10 0.12 0.17 0.22 0.28 0.35 0.44 0.52 0.59 0.66 0.75 0.84 0.94 1.06 1.17
0.18 0.20 0.23 0.23 0.24 0.24 0.24 0.26 0.33 0.37 0.26 0.12 0.10 0.08 0.08 0.06 0.05 0.08 0.07 0.07 0.09 0.10 0.11 0.14 0.16 0.18 0.22 0.27 0.33 0.38 0.44 0.51 0.58 0.67 0.77 0.86 0.95 1.08
0.15 0.18 0.20 0.22 0.23 0.23 0.23 0.24 0.26 0.31 0.29 0.14 0.10 0.09 0.10 0.07 0.05 0.09 0.09 0.09 0.09 0.12 0.16 0.20 0.24 0.26 0.29 0.31 0.33 0.36 0.40 0.45 0.52 0.62 0.72 0.81 0.89 0.93
0.11 0.13 0.15 0.17 0.21 0.24 0.27 0.26 0.25 0.27 0.32 0.24 0.11 0.09 0.08 0.08 0.09 0.11 0.12 0.14 0.13 0.14 0.19 0.26 0.32 0.34 0.34 0.33 0.34 0.35 0.38 0.41 0.45 0.50 0.56 0.64 0.73 0.82
0.11 0.13 0.15 0.17 0.18 0.20 0.22 0.23 0.23 0.25 0.31 0.34 0.19 0.13 0.13 0.11 0.13 0.12 0.14 0.16 0.15 0.16 0.20 0.23 0.26 0.30 0.33 0.35 0.36 0.36 0.36 0.38 0.40 0.44 0.47 0.51 0.58 0.67
0.15 0.17 0.18 0.17 0.16 0.16 0.16 0.18 0.23 0.26 0.28 0.33 0.29 0.21 0.18 0.15 0.16 0.15 0.16 0.15 0.17 0.20 0.22 0.24 0.26 0.28 0.29 0.30 0.30 0.30 0.31 0.34 0.41 0.50 0.57 0.61 0.62 0.64
0.20 0.19 0.17 0.15 0.13 0.13 0.15 0.17 0.21 0.25 0.33 0.41 0.39 0.31 0.23 0.21 0.19 0.20 0.25 0.24 0.23 0.21 0.23 0.23 0.27 0.32 0.34 0.38 0.39 0.39 0.39 0.45 0.55 0.65 0.72 0.76 0.77 0.77
0.17 0.15 0.12 0.10 0.09 0.10 0.12 0.15 0.23 0.32 0.41 0.48 0.46 0.39 0.28 0.28 0.31 0.39 0.45 0.51 0.44 0.27 0.33 0.39 0.44 0.51 0.52 0.53 0.58 0.60 0.60 0.63 0.67 0.72 0.75 0.77 0.79 0.82
0.11 0.09 0.07 0.05 0.06 0.05 0.06 0.11 0.16 0.25 0.34 0.38 0.34 0.25 0.23 0.24 0.38 0.50 0.54 0.59 0.52 0.38 0.45 0.52 0.49 0.51 0.51 0.54 0.62 0.62 0.58 0.57 0.58 0.62 0.66 0.68 0.68 0.72
0.05 0.03 0.03 0.02 0.03 0.08 0.14 0.18 0.13 0.09 0.11 0.13 0.14 0.14 0.19 0.25 0.40 0.59 0.66 0.67 0.53 0.42 0.41 0.48 0.41 0.39 0.38 0.40 0.47 0.49 0.46 0.47 0.50 0.54 0.56 0.57 0.57 0.58
0.01 0.02 0.03 0.03 0.05 0.17 0.26 0.25 0.14 0.04 0.04 0.07 0.13 0.14 0.17 0.20 0.27 0.49 0.68 0.78 0.64 0.37 0.31 0.38 0.38 0.38 0.36 0.33 0.36 0.42 0.42 0.43 0.44 0.45 0.47 0.49 0.51 0.55
0.02 0.02 0.02 0.05 0.12 0.24 0.26 0.23 0.13 0.05 0.08 0.07 0.06 0.05 0.04 0.06 0.16 0.36 0.75 1.12 0.91 0.58 0.32 0.42 0.47 0.53 0.62 0.36 0.31 0.35 0.35 0.34 0.34 0.35 0.36 0.39 0.43 0.46
0.06 0.03 0.02 0.08 0.19 0.23 0.18 0.09 0.10 0.18 0.15 0.06 0.05 0.04 0.04 0.04 0.08 0.16 0.42 1.03 1.33 0.95 0.48 0.74 0.87 0.62 0.71 0.47 0.31 0.32 0.34 0.39 0.42 0.39 0.38 0.39 0.41 0.47
0.08 0.05 0.06 0.14 0.16 0.11 0.05 0.05 0.12 0.13 0.05 0.05 0.06 0.06 0.08 0.11 0.15 0.21 0.27 0.44 0.77 0.98 0.72 0.91 1.19 0.83 0.83 0.62 0.37 0.34 0.38 0.52 0.67 0.64 0.57 0.55 0.48 0.48
0.09 0.12 0.14 0.11 0.06 0.02 0.03 0.05 0.06 0.05 0.09 0.16 0.15 0.13 0.15 0.22 0.28 0.32 0.31 0.35 0.41 0.49 0.54 0.63 0.90 0.89 0.91 0.81 0.56 0.45 0.52 0.59 0.77 0.95 0.90 0.74 0.56 0.48
0.12 0.12 0.07 0.03 0.02 0.02 0.02 0.02 0.03 0.07 0.19 0.26 0.22 0.17 0.18 0.25 0.31 0.40 0.52 0.53 0.58 0.53 0.50 0.49 0.59 0.80 0.80 0.58 0.65 0.62 0.68 0.91 0.99 1.17 1.13 0.87 0.65 0.52
0.14 0.05 0.01 0.01 0.02 0.02 0.01 0.01 0.03 0.06 0.13 0.18 0.24 0.26 0.25 0.33 0.42 0.54 0.70 0.76 0.79 0.69 0.57 0.43 0.36 0.41 0.51 0.55 0.55 0.52 0.66 0.90 1.11 1.22 1.18 1.00 0.80 0.64
0.07 0.02 0.02 0.03 0.04 0.04 0.04 0.05 0.04 0.08 0.17 0.28 0.31 0.34 0.41 0.48 0.58 0.65 0.78 0.86 0.80 0.65 0.53 0.41 0.33 0.29 0.26 0.27 0.42 0.64 0.75 0.94 1.09 1.08 0.93 0.88 0.88 0.72
0.03 0.04 0.05 0.05 0.05 0.06 0.09 0.12 0.13 0.14 0.26 0.41 0.48 0.52 0.58 0.62 0.69 0.75 0.78 0.74 0.62 0.50 0.40 0.34 0.37 0.52 0.48 0.31 0.27 0.55 0.95 1.04 0.94 0.88 0.75 0.71 0.83 0.73
0.04 0.06 0.06 0.06 0.07 0.10 0.14 0.21 0.25 0.25 0.34 0.47 0.55 0.60 0.67 0.74 0.78 0.76 0.70 0.64 0.54 0.39 0.25 0.17 0.23 0.53 0.82 0.76 0.61 0.61 0.74 0.94 0.95 0.85 0.66 0.57 0.64 0.62
0.05 0.05 0.05 0.07 0.11 0.14 0.18 0.25 0.34 0.44 0.52 0.64 0.67 0.69 0.74 0.84 0.81 0.69 0.55 0.41 0.33 0.26 0.19 0.13 0.16 0.31 0.50 0.51 0.47 0.52 0.65 0.75 0.85 0.99 0.84 0.66 0.53 0.48
0.05 0.05 0.05 0.07 0.13 0.18 0.23 0.31 0.41 0.47 0.56 0.64 0.69 0.70 0.73 0.78 0.72 0.52 0.35 0.27 0.21 0.19 0.17 0.11 0.09 0.11 0.21 0.38 0.43 0.43 0.48 0.49 0.44 0.41 0.57 0.79 0.98 1.11
0.07 0.08 0.08 0.10 0.15 0.21 0.28 0.34 0.44 0.51 0.60 0.70 0.71 0.67 0.63 0.54 0.38 0.28 0.22 0.21 0.21 0.17 0.14 0.10 0.07 0.08 0.15 0.25 0.33 0.36 0.36 0.33 0.27 0.30 0.49 0.55 0.70 0.91

GEFSNE_prec_meanprecacc_072.txt.gz
Total_Precipitation_Accumulation
0.39 0.42 0.44 0.42 0.42 0.44 0.48 0.58 0.65 0.56 0.40 0.29 0.25 0.21 0.19 0.16 0.13 0.12 0.08 0.06 0.06 0.07 0.09 0.11 0.13 0.17 0.22 0.28 0.35 0.44 0.52 0.59 0.66 0.75 0.84 0.95 1.07 1.18
0.30 0.34 0.37 0.39 0.41 0.44 0.47 0.51 0.59 0.64 0.50 0.31 0.25 0.22 0.21 0.17 0.14 0.14 0.10 0.10 0.10 0.11 0.12 0.14 0.16 0.19 0.23 0.27 0.33 0.39 0.45 0.51 0.59 0.68 0.78 0.87 0.97 1.10
0.23 0.27 0.32 0.36 0.39 0.41 0.44 0.47 0.50 0.56 0.53 0.35 0.27 0.25 0.23 0.18 0.14 0.14 0.12 0.11 0.10 0.13 0.17 0.21 0.25 0.27 0.29 0.31 0.34 0.36 0.40 0.45 0.53 0.63 0.73 0.83 0.90 0.95
0.17 0.20 0.24 0.28 0.32 0.37 0.41 0.41 0.41 0.43 0.49 0.41 0.26 0.21 0.18 0.16 0.14 0.13 0.13 0.15 0.14 0.14 0.20 0.26 0.32 0.35 0.34 0.33 0.34 0.36 0.38 0.41 0.45 0.50 0.57 0.64 0.74 0.83
0.17 0.22 0.27 0.31 0.35 0.37 0.39 0.38 0.37 0.37 0.43 0.45 0.28 0.20 0.18 0.15 0.15 0.13 0.14 0.16 0.15 0.16 0.20 0.23 0.26 0.30 0.33 0.35 0.36 0.36 0.37 0.38 0.41 0.44 0.47 0.52 0.59 0.68
0.22 0.26 0.28 0.29 0.29 0.29 0.29 0.30 0.33 0.34 0.34 0.38 0.33 0.25 0.21 0.16 0.17 0.16 0.16 0.15 0.17 0.20 0.22 0.24 0.26 0.28 0.29 0.30 0.30 0.30 0.31 0.34 0.41 0.51 0.57 0.61 0.62 0.64
0.30 0.29 0.27 0.25 0.22 0.20 0.22 0.24 0.26 0.30 0.36 0.44 0.41 0.32 0.24 0.21 0.19 0.20 0.25 0.24 0.23 0.21 0.23 0.23 0.27 0.32 0.34 0.38 0.39 0.39 0.39 0.45 0.55 0.65 0.73 0.77 0.78 0.78
0.29 0.25 0.22 0.19 0.16 0.16 0.17 0.18 0.25 0.34 0.43 0.49 0.47 0.39 0.28 0.28 0.31 0.39 0.45 0.51 0.44 0.27 0.33 0.39 0.44 0.51 0.52 0.53 0.58 0.60 0.60 0.63 0.67 0.72 0.76 0.78 0.79 0.83
0.21 0.18 0.15 0.12 0.12 0.09 0.09 0.13 0.17 0.25 0.35 0.38 0.35 0.25 0.23 0.24 0.38 0.50 0.54 0.59 0.52 0.38 0.45 0.52 0.49 0.51 0.51 0.54 0.62 0.62 0.58 0.57 0.58 0.62 0.66 0.69 0.69 0.72
0.09 0.07 0.06 0.05 0.05 0.09 0.15 0.19 0.13 0.10 0.11 0.13 0.14 0.14 0.19 0.25 0.40 0.59 0.66 0.67 0.53 0.42 0.41 0.48 0.41 0.39 0.38 0.40 0.47 0.49 0.46 0.47 0.50 0.54 0.56 0.58 0.57 0.59
0.04 0.03 0.04 0.04 0.05 0.17 0.26 0.25 0.14 0.05 0.04 0.07 0.13 0.14 0.17 0.20 0.28 0.49 0.68 0.78 0.64 0.37 0.31 0.38 0.38 0.38 0.36 0.33 0.36 0.42 0.42 0.43 0.44 0.45 0.47 0.49 0.51 0.56
0.04 0.03 0.03 0.05 0.12 0.24 0.26 0.24 0.13 0.05 0.08 0.07 0.06 0.05 0.04 0.06 0.16 0.36 0.75 1.12 0.91 0.58 0.32 0.42 0.47 0.53 0.63 0.36 0.31 0.35 0.35 0.34 0.34 0.35 0.36 0.39 0.43 0.47
0.06 0.03 0.02 0.08 0.19 0.23 0.19 0.09 0.10 0.18 0.15 0.06 0.05 0.04 0.04 0.04 0.08 0.16 0.42 1.03 1.33 0.95 0.48 0.75 0.88 0.63 0.72 0.48 0.31 0.32 0.34 0.39 0.42 0.39 0.38 0.39 0.41 0.48
0.08 0.05 0.06 0.14 0.16 0.11 0.05 0.05 0.12 0.13 0.05 0.05 0.06 0.06 0.08 0.11 0.15 0.21 0.27 0.44 0.78 0.98 0.72 0.91 1.22 0.85 0.86 0.64 0.38 0.34 0.38 0.52 0.67 0.64 0.57 0.55 0.48 0.48
0.09 0.12 0.14 0.11 0.06 0.02 0.03 0.05 0.06 0.05 0.09 0.16 0.15 0.13 0.15 0.22 0.28 0.32 0.32 0.35 0.41 0.49 0.54 0.63 0.91 0.91 0.94 0.84 0.57 0.45 0.52 0.59 0.77 0.95 0.90 0.74 0.56 0.48
0.12 0.12 0.07 0.03 0.02 0.02 0.02 0.02 0.03 0.07 0.19 0.26 0.22 0.17 0.18 0.25 0.31 0.40 0.52 0.54 0.58 0.54 0.50 0.49 0.60 0.82 0.83 0.60 0.67 0.63 0.68 0.91 0.99 1.17 1.13 0.87 0.65 0.52
0.14 0.05 0.01 0.01 0.02 0.02 0.01 0.01 0.03 0.06 0.13 0.18 0.24 0.26 0.25 0.33 0.42 0.54 0.70 0.77 0.80 0.69 0.57 0.43 0.37 0.42 0.53 0.57 0.58 0.53 0.66 0.90 1.11 1.22 1.18 1.01 0.80 0.64
0.07 0.02 0.02 0.03 0.04 0.04 0.04 0.05 0.04 0.08 0.17 0.28 0.31 0.35 0.41 0.49 0.58 0.65 0.78 0.87 0.81 0.65 0.53 0.41 0.34 0.31 0.27 0.28 0.43 0.64 0.75 0.94 1.09 1.08 0.94 0.90 0.89 0.72
0.03 0.04 0.05 0.05 0.05 0.06 0.09 0.12 0.13 0.14 0.27 0.41 0.49 0.52 0.58 0.62 0.70 0.76 0.78 0.75 0.63 0.50 0.41 0.35 0.38 0.55 0.52 0.33 0.27 0.55 0.95 1.05 0.95 0.88 0.76 0.72 0.84 0.73
0.04 0.06 0.06 0.06 0.07 0.10 0.14 0.21 0.25 0.26 0.35 0.47 0.56 0.61 0.67 0.75 0.79 0.77 0.71 0.65 0.56 0.40 0.25 0.17 0.24 0.55 0.88 0.80 0.63 0.61 0.74 0.95 0.97 0.87 0.66 0.58 0.65 0.62
0.05 0.05 0.05 0.07 0.11 0.14 0.18 0.25 0.35 0.44 0.52 0.64 0.67 0.70 0.75 0.85 0.82 0.70 0.56 0.42 0.34 0.27 0.20 0.13 0.16 0.31 0.52 0.56 0.51 0.53 0.65 0.75 0.86 1.01 0.88 0.70 0.55 0.49
0.05 0.05 0.05 0.07 0.13 0.18 0.23 0.31 0.41 0.47 0.56 0.65 0.70 0.71 0.74 0.80 0.73 0.53 0.36 0.28 0.22 0.20 0.18 0.12 0.09 0.11 0.23 0.43 0.47 0.44 0.48 0.49 0.44 0.41 0.58 0.83 1.06 1.16
0.07 0.08 0.08 0.10 0.15 0.21 0.28 0.34 0.44 0.52 0.60 0.70 0.72 0.68 0.64 0.55 0.39 0.29 0.24 0.23 0.22 0.19 0.15 0.11 0.07 0.09 0.16 0.27 0.36 0.37 0.36 0.33 0.27 0.30 0.49 0.55 0.70 0.92

GEFSNE_prec_meanprecacc_078.txt.gz
Total_Precipitation_Accumulation
0.48 0.53 0.56 0.55 0.58 0.61 0.68 0.82 0.94 0.84 0.64 0.52 0.49 0.46 0.46 0.43 0.40 0.35 0.28 0.28 0.25 0.23 0.23 0.22 0.21 0.23 0.26 0.30 0.37 0.46 0.53 0.60 0.67 0.76 0.85 0.96 1.08 1.19
0.34 0.40 0.44 0.46 0.50 0.55 0.61 0.69 0.83 0.92 0.78 0.55 0.47 0.45 0.45 0.41 0.38 0.34 0.28 0.28 0.26 0.25 0.23 0.23 0.23 0.23 0.25 0.29 0.34 0.39 0.45 0.52 0.59 0.68 0.79 0.88 0.98 1.11
0.25 0.30 0.35 0.40 0.43 0.46 0.50 0.55 0.62 0.72 0.73 0.54 0.45 0.42 0.40 0.35 0.31 0.29 0.25 0.23 0.20 0.21 0.24 0.25 0.28 0.29 0.30 0.32 0.34 0.37 0.40 0.45 0.53 0.63 0.73 0.83 0.91 0.96
0.18 0.22 0.26 0.30 0.35 0.40 0.45 0.47 0.48 0.52 0.59 0.53 0.39 0.34 0.30 0.26 0.23 0.22 0.21 0.21 0.19 0.19 0.23 0.28 0.33 0.36 0.35 0.34 0.34 0.36 0.38 0.41 0.46 0.50 0.57 0.65 0.74 0.84
0.18 0.23 0.28 0.33 0.38 0.41 0.43 0.44 0.44 0.46 0.53 0.55 0.39 0.30 0.26 0.22 0.22 0.18 0.19 0.19 0.17 0.18 0.22 0.24 0.27 0.30 0.33 0.35 0.36 0.37 0.37 0.38 0.41 0.44 0.48 0.52 0.59 0.68
0.23 0.28 0.31 0.33 0.33 0.33 0.34 0.35 0.39 0.41 0.42 0.46 0.41 0.32 0.27 0.21 0.21 0.19 0.18 0.17 0.18 0.20 0.23 0.24 0.26 0.28 0.29 0.30 0.30 0.30 0.31 0.34 0.42 0.51 0.57 0.61 0.62 0.65
0.31 0.31 0.30 0.28 0.25 0.24 0.26 0.28 0.31 0.34 0.41 0.48 0.46 0.36 0.27 0.24 0.21 0.21 0.26 0.25 0.24 0.22 0.23 0.23 0.27 0.32 0.34 0.38 0.39 0.39 0.39 0.45 0.55 0.65 0.73 0.77 0.78 0.78
0.30 0.26 0.24 0.21 0.19 0.19 0.20 0.22 0.28 0.37 0.45 0.52 0.50 0.41 0.30 0.29 0.32 0.39 0.46 0.51 0.44 0.27 0.33 0.39 0.44 0.51 0.52 0.53 0.58 0.60 0.60 0.63 0.67 0.72 0.76 0.78 0.80 0.84
0.22 0.19 0.17 0.15 0.14 0.12 0.11 0.15 0.19 0.27 0.36 0.40 0.36 0.26 0.24 0.24 0.38 0.50 0.54 0.59 0.52 0.38 0.45 0.52 0.49 0.51 0.51 0.54 0.62 0.62 0.58 0.57 0.58 0.62 0.67 0.69 0.69 0.73
0.09 0.08 0.07 0.06 0.06 0.10 0.16 0.20 0.14 0.11 0.12 0.14 0.14 0.15 0.19 0.25 0.41 0.59 0.66 0.68 0.53 0.42 0.41 0.48 0.41 0.39 0.38 0.40 0.47 0.49 0.46 0.47 0.50 0.54 0.56 0.58 0.58 0.59
0.04 0.04 0.05 0.04 0.06 0.18 0.26 0.26 0.14 0.05 0.04 0.08 0.13 0.14 0.17 0.20 0.28 0.49 0.68 0.78 0.64 0.37 0.31 0.38 0.38 0.38 0.36 0.33 0.36 0.42 0.42 0.43 0.44 0.45 0.47 0.49 0.51 0.56
0.04 0.03 0.03 0.05 0.12 0.25 0.26 0.24 0.13 0.05 0.08 0.07 0.06 0.05 0.04 0.06 0.16 0.36 0.75 1.13 0.92 0.58 0.32 0.42 0.47 0.53 0.63 0.36 0.31 0.35 0.35 0.34 0.34 0.35 0.36 0.39 0.43 0.47
0.06 0.03 0.02 0.09 0.19 0.23 0.19 0.09 0.10 0.18 0.15 0.06 0.05 0.04 0.04 0.04 0.08 0.16 0.42 1.03 1.34 0.96 0.48 0.75 0.89 0.63 0.73 0.48 0.31 0.32 0.34 0.39 0.42 0.39 0.38 0.39 0.41 0.48
0.08 0.05 0.06 0.14 0.16 0.11 0.06 0.05 0.12 0.13 0.05 0.05 0.06 0.06 0.08 0.11 0.15 0.21 0.27 0.44 0.78 0.99 0.72 0.92 1.24 0.87 0.88 0.65 0.38 0.34 0.38 0.52 0.67 0.64 0.57 0.55 0.48 0.48
0.09 0.12 0.14 0.11 0.06 0.02 0.03 0.05 0.06 0.05 0.09 0.16 0.15 0.13 0.15 0.22 0.28 0.32 0.32 0.35 0.41 0.49 0.54 0.63 0.92 0.92 0.97 0.87 0.58 0.45 0.52 0.59 0.77 0.95 0.90 0.74 0.56 0.48
0.12 0.12 0.07 0.03 0.02 0.02 0.02 0.02 0.03 0.07 0.19 0.26 0.22 0.17 0.18 0.25 0.31 0.41 0.52 0.54 0.59 0.54 0.50 0.49 0.60 0.83 0.85 0.62 0.68 0.64 0.68 0.91 0.99 1.17 1.13 0.87 0.65 0.52
0.14 0.05 0.01 0.01 0.02 0.02 0.01 0.01 0.03 0.06 0.13 0.18 0.24 0.26 0.25 0.33 0.42 0.55 0.70 0.77 0.80 0.69 0.57 0.43 0.37 0.42 0.54 0.59 0.59 0.54 0.66 0.90 1.11 1.22 1.18 1.01 0.80 0.64
0.07 0.02 0.02 0.03 0.04 0.04 0.04 0.05 0.04 0.08 0.17 0.28 0.31 0.35 0.42 0.49 0.58 0.65 0.79 0.88 0.82 0.66 0.53 0.41 0.34 0.31 0.27 0.28 0.43 0.64 0.75 0.94 1.09 1.09 0.94 0.90 0.89 0.72
0.03 0.04 0.05 0.05 0.05 0.06 0.09 0.12 0.14 0.14 0.27 0.41 0.49 0.53 0.59 0.63 0.70 0.77 0.79 0.76 0.64 0.51 0.41 0.35 0.39 0.58 0.55 0.34 0.27 0.55 0.96 1.05 0.95 0.89 0.76 0.73 0.84 0.73
0.04 0.06 0.06 0.06 0.07 0.10 0.14 0.21 0.25 0.26 0.35 0.48 0.56 0.61 0.68 0.76 0.80 0.78 0.72 0.66 0.57 0.41 0.26 0.17 0.25 0.57 0.92 0.84 0.65 0.61 0.74 0.95 0.97 0.87 0.67 0.58 0.65 0.62
0.05 0.05 0.05 0.07 0.11 0.14 0.18 0.26 0.35 0.45 0.52 0.65 0.68 0.70 0.75 0.87 0.83 0.70 0.57 0.43 0.35 0.28 0.21 0.13 0.17 0.32 0.55 0.61 0.55 0.53 0.65 0.75 0.86 1.02 0.89 0.72 0.57 0.49
0.05 0.05 0.05 0.07 0.13 0.18 0.23 0.31 0.41 0.48 0.56 0.65 0.70 0.72 0.75 0.81 0.75 0.54 0.37 0.29 0.23 0.21 0.19 0.12 0.09 0.12 0.25 0.47 0.49 0.45 0.48 0.49 0.44 0.41 0.59 0.85 1.11 1.20
0.07 0.08 0.08 0.10 0.15 0.21 0.28 0.34 0.45 0.52 0.61 0.71 0.73 0.69 0.65 0.56 0.40 0.30 0.25 0.24 0.24 0.20 0.16 0.12 0.08 0.09 0.17 0.28 0.37 0.38 0.36 0.33 0.27 0.30 0.49 0.55 0.71 0.93